Regional Weather Roundup
Issued by NWS

Home | Current Version | Previous Version | Graphics & Text | Print | Product List | Glossary On
Versions: 1 2 3 4 5 6 7 8 9 10 11 12 13 14 15 16 17 18 19 20 21 22 23 24 25 26 27 28 29 30 31 32 33 34 35 36 37 38 39 40 41 42 43 44 45 46 47 48 49 50
000
ASUS45 KABQ 241710
RWRNM
NEW MEXICO REGIONAL WEATHER ROUNDUP
NATIONAL WEATHER SERVICE ALBUQUERQUE NM
1000 AM MST FRI FEB 24 2017

NOTE: "FAIR" MEANS FEW OR NO CLOUDS BELOW 12,000 FEET AGL WITH NO
       SIGNIFICANT WEATHER OR OBSTRUCTIONS TO VISION.

      THIS PRODUCT IS RELEASED AS TWO VERSIONS.  ONE VERSION NEAR
      THE TOP OF THE HOUR CONTAINING PRELIMINARY DATA FROM ALBUQUERQUE
      AND OTHER STATIONS.  A FINAL VERSION WITH ADDITIONAL DATA IS
      ISSUED ABOUT 10 MINUTES AFTER THE HOUR.

NMZ501-503-504-510>518-241800-
NORTHWEST PLATEAU/NORTHCENTRAL MOUNTAINS

CITY           SKY/WX    TMP DP  RH WIND       PRES   REMARKS
FARMINGTON     FAIR      34   5  29 W16G25    29.93S WCI  24
LOS ALAMOS     FAIR      29   2  32 W15G25    29.91S WCI  18
SANTA FE       PTSUNNY   34   2  25 W14G25    29.91S WCI  25
TAOS           FAIR      28   7  40 W22G28    29.87R WCI  15
ANGEL FIRE     CLOUDY    22   5  47 W21G30    29.83R WCI   6

$$
NMZ402-403-502-505>509-241800-
WESTCENTRAL MOUNTAINS/SOUTHWEST MOUNTAINS

CITY           SKY/WX    TMP DP  RH WIND       PRES   REMARKS
GALLUP         FAIR      32   5  32 W16G29    29.99R WCI  21
GRANTS         FAIR      34   3  27 W18G28    29.98S WCI  23
SILVER CITY    FAIR      40  10  28 NW14      30.06R WCI  33

$$
NMZ407-409-411-412-241800-
SOUTHERN DESERTS

CITY           SKY/WX    TMP DP  RH WIND       PRES   REMARKS
DEMING         FAIR      48  13  24 W17G25    30.06R
LAS CRUCES     FAIR      46   9  22 W22G28    30.04S
HOLLOMAN AFB   FAIR      48   5  17 NE3       30.05R
ALAMOGORDO     FAIR      46   5  18 N3        30.03R
T OR C         FAIR      45  10  24 N10G17    29.99S

$$
NMZ519>523-241800-
CENTRAL VALLEYS/CENTRAL HIGHLANDS

CITY           SKY/WX    TMP DP  RH WIND       PRES   REMARKS
ALBUQUERQUE    FAIR      38   2  22 NW21G28   29.98R WCI  28
DOUBLE EAGLE   MOSUNNY   36   3  25 W21       29.97R WCI  24
MORIARTY ARPT  FAIR      38   4  24 W29       29.94S WCI  25
CLINES CORNERS FAIR      32   4  30 NW25G37   29.89S WCI  19
BELEN          FAIR      40   6  24 NW18      30.00R WCI  31
SOCORRO        FAIR      44  11  27 NW23G31   29.98R

$$
NMZ524>526-539-540-241800-
SOUTHCENTRAL MOUNTAINS

CITY           SKY/WX    TMP DP  RH WIND       PRES   REMARKS
RUIDOSO        FAIR      36   5  27 NW16G26   29.96S WCI  26

$$
NMZ527>531-241800-
NORTHEAST HIGHLANDS/NORTHEAST PLAINS

CITY           SKY/WX    TMP DP  RH WIND       PRES   REMARKS
LAS VEGAS      FAIR      33  -1  23 W13G21    29.85R WCI  24
RATON          FAIR      37   1  22 W12G24    29.81F WCI  29
CLAYTON        FAIR      32  18  56 N13       29.91R WCI  22

$$
NMZ532>537-241800-
EASTCENTRAL PLAINS

CITY           SKY/WX    TMP DP  RH WIND       PRES   REMARKS
TUCUMCARI      FAIR      36  21  54 E12       29.94S WCI  28
CANNON AFB     FAIR      38  28  65 SE7       29.94F WCI  33
CLOVIS AIRPORT FAIR      36  21  55 CALM      29.96S

$$
NMZ028-029-538-241800-
SOUTHEAST PLAINS

CITY           SKY/WX    TMP DP  RH WIND       PRES   REMARKS
ROSWELL        FAIR      53   7  15 N12G17    29.97F
ARTESIA        FAIR      52   9  17 VRB5      29.97S
CARLSBAD       FAIR      59   3  10 W26G35    29.93F
HOBBS          SUNNY     50  18  27 NW10      29.98S


$$




USA.gov is the U.S. government's official web portal to all federal, state and local government web resources and services.